Dewpoint
72 71 73 72 59 55 49 51 50 49 48 52 54 54 53 54 52 44 65 68 71 73 74 75 77 75 75 75 75 75 75 75 75 75 75 75 75 75 75 75 75 74 75 75 74 74 74 74 74
69 71 72 67 54 48 50 50 52 51 50 53 54 54 54 54 58 63 66 70 72 73 74 75 77 76 75 75 75 75 75 75 75 75 75 76 75 75 75 75 75 74 74 74 74 74 74 73 73
70 70 64 60 56 49 49 50 52 52 53 51 51 55 55 58 61 64 68 71 72 72 74 74 76 76 75 75 75 76 75 75 75 75 75 75 75 75 75 74 74 74 75 74 74 74 74 74 74
71 69 66 57 54 52 50 50 49 53 56 55 54 54 57 60 64 67 69 70 70 73 73 76 76 75 75 75 75 75 75 75 75 76 75 75 75 75 74 74 75 75 74 74 74 73 72 73 73
68 65 59 55 55 51 53 53 49 52 55 56 56 56 58 64 65 66 69 70 71 73 74 74 76 75 75 75 75 75 75 76 75 75 75 75 74 74 75 75 74 74 74 73 72 72 72 73 73
63 63 57 54 53 52 53 55 51 54 57 57 57 57 60 64 66 68 69 70 71 72 73 74 75 75 75 75 75 75 75 75 75 75 73 73 73 73 73 74 74 73 73 73 72 72 73 73 73
63 61 56 55 52 55 56 57 52 57 57 57 58 57 62 64 66 68 69 70 71 73 73 73 73 74 75 75 75 75 75 75 75 74 73 73 72 72 73 73 73 73 72 72 73 73 73 74 74
65 63 57 55 53 52 56 55 54 56 56 58 59 57 59 63 66 68 69 70 71 71 72 71 71 72 73 73 75 75 76 76 74 73 73 72 72 72 71 74 74 72 73 73 73 73 75 75 74
65 59 56 53 52 52 52 53 52 56 57 57 58 58 57 63 66 67 68 68 69 69 70 72 72 69 70 72 73 75 75 74 73 72 72 72 69 69 71 71 71 71 72 73 74 75 76 76 75
64 58 55 55 57 53 50 50 49 55 57 57 57 57 58 60 65 66 66 66 65 65 67 71 72 70 68 71 71 72 72 71 70 71 71 72 70 69 69 71 73 73 74 72 71 72 75 71 74
62 58 56 54 56 54 49 49 51 56 55 56 56 56 57 58 61 64 65 64 64 62 67 70 71 69 67 67 70 71 71 70 70 69 71 73 74 68 68 70 69 68 67 69 71 71 71 69 73
57 57 56 55 55 52 51 51 50 55 56 56 56 57 57 57 57 59 61 63 59 62 67 69 70 66 65 66 69 69 68 69 71 63 71 72 71 70 68 69 69 69 67 68 68 67 71 67 67
56 55 53 53 53 51 53 55 53 55 56 56 56 57 57 57 58 57 56 56 57 64 66 68 67 65 62 65 67 66 66 69 72 71 69 70 70 68 67 66 68 69 69 68 67 71 70 68 70
55 55 52 54 52 52 53 54 55 56 56 55 56 56 56 57 57 56 54 55 56 62 59 63 65 61 64 65 65 65 67 72 74 71 66 66 71 71 69 67 67 70 70 69 68 68 71 71 71
53 50 51 51 52 53 54 53 53 55 55 54 55 55 56 56 55 53 54 55 56 59 64 62 64 66 67 69 69 68 65 71 72 71 67 67 70 71 69 69 68 70 70 70 68 67 71 70 69
52 52 50 50 51 53 53 51 55 55 55 54 54 54 55 55 52 53 54 56 58 63 63 64 66 68 67 67 69 67 67 66 69 71 70 70 72 73 69 69 68 70 71 71 71 68 69 68 70
53 51 52 49 51 53 52 51 52 54 54 54 54 54 54 55 53 53 53 58 60 62 64 64 67 67 68 67 68 69 69 68 67 69 71 70 69 71 71 71 70 71 72 72 71 71 70 70 69
50 47 49 50 50 51 54 49 50 52 55 53 53 54 54 54 54 53 54 58 60 61 64 63 66 66 68 68 67 68 67 66 66 67 69 71 70 69 69 70 71 71 70 68 70 71 70 69 68
50 48 50 50 52 52 52 54 53 59 59 58 58 54 54 54 55 54 53 60 61 62 63 64 65 65 65 67 66 66 64 65 65 63 66 71 70 69 71 71 70 70 64 64 70 71 68 68 68
51 50 49 52 55 53 55 55 57 59 58 60 61 60 59 58 55 54 54 60 60 61 62 64 64 65 66 66 66 64 64 66 70 72 71 72 73 73 71 71 72 70 66 70 70 69 68 69 69
53 51 48 48 53 56 55 54 56 57 60 62 62 62 61 62 56 55 55 60 60 60 61 63 64 66 68 67 67 69 69 69 70 71 72 72 72 73 73 72 72 71 71 70 69 69 67 66 68
52 53 51 48 50 49 55 48 55 56 57 60 61 61 60 62 61 58 56 59 60 60 61 62 66 65 68 67 67 66 67 68 69 70 71 71 71 71 71 71 71 71 70 70 69 68 68 67 66
52 52 49 48 49 52 52 49 51 56 54 57 59 59 62 63 62 61 57 57 59 62 62 63 65 66 67 68 69 70 70 70 70 69 70 70 70 70 69 69 68 67 67 66 63 63 62 63 62
54 51 51 51 52 46 49 49 46 49 52 54 58 61 63 65 65 63 58 57 60 63 63 64 66 69 70 71 71 69 69 69 68 68 70 69 68 67 67 66 65 64 62 62 62 61 60 61 60
51 51 45 42 43 43 50 47 44 53 55 56 60 57 62 62 62 63 58 60 59 62 63 66 69 70 70 69 69 69 68 68 67 67 69 68 66 65 64 63 62 62 62 61 59 57 56 56 55
45 48 42 37 36 38 50 46 47 55 52 57 57 58 58 62 62 57 61 60 60 62 65 67 69 69 67 67 67 67 67 66 66 67 67 66 65 63 62 61 61 60 59 58 56 56 56 55 56
44 42 42 36 25 41 45 48 55 57 52 53 58 59 55 56 64 66 68 68 67 67 68 69 67 66 66 66 67 65 65 65 65 64 64 63 62 62 61 59 58 58 58 58 58 55 57 57 57
41 40 29 19 18 13 33 41 41 53 52 53 52 63 64 64 65 65 65 65 65 65 66 66 65 65 65 66 65 64 65 64 64 63 62 62 59 58 57 56 57 58 59 60 60 59 57 57 56
21 38 31 22 18 15 17 32 49 51 49 50 61 62 63 64 64 65 64 64 65 65 64 64 64 63 64 63 64 64 64 63 62 60 60 60 57 57 56 56 57 58 58 58 57 57 57 57 57
19 20 19 19 17 19 22 43 53 50 48 60 60 60 62 63 64 65 65 64 64 64 65 65 65 64 64 62 63 63 62 62 61 61 59 59 58 57 57 57 58 57 57 57 57 57 57 55 54
Lifted_Index
-2 -2 -3 -3 -2 -1 -0 0 -0 -0 -0 -0 -0 -1 -1 -1 -1 -0 -1 -3 -4 -5 -6 -6 -6 -5 -5 -5 -4 -4 -4 -4 -4 -4 -4 -4 -4 -4 -4 -5 -4 -4 -4 -4 -4 -4 -4 -4 -4
-2 -2 -2 -2 -2 -1 -0 -0 -0 -1 -1 -0 -0 -0 -1 -1 -1 -1 -2 -3 -4 -5 -5 -6 -5 -5 -5 -5 -4 -4 -4 -4 -4 -4 -4 -4 -4 -4 -4 -4 -4 -4 -4 -4 -4 -4 -4 -4 -4
-2 -2 -2 -2 -1 -1 -1 -1 -1 -1 -1 -1 -0 -0 -0 -1 -2 -2 -3 -4 -4 -5 -5 -5 -5 -5 -5 -4 -4 -4 -4 -4 -4 -4 -4 -4 -4 -4 -4 -4 -4 -4 -4 -4 -4 -4 -4 -4 -4
-2 -2 -2 -1 -1 -1 -1 -1 -2 -2 -2 -1 -1 -1 -1 -1 -2 -3 -4 -4 -4 -5 -5 -5 -5 -5 -4 -4 -4 -4 -4 -4 -4 -4 -4 -4 -4 -4 -4 -4 -4 -4 -5 -5 -4 -4 -4 -5 -5
-1 -1 -1 -1 -1 -1 -1 -2 -2 -2 -2 -1 -1 -1 -2 -2 -3 -4 -4 -4 -5 -5 -5 -5 -5 -4 -4 -4 -4 -5 -5 -4 -4 -4 -4 -4 -4 -4 -4 -5 -5 -5 -5 -4 -4 -4 -4 -5 -5
-1 -1 -1 -1 -1 -1 -1 -2 -2 -2 -2 -2 -1 -2 -2 -3 -3 -4 -4 -5 -5 -5 -5 -5 -5 -5 -4 -4 -4 -5 -4 -4 -4 -4 -3 -3 -3 -4 -4 -4 -5 -5 -4 -4 -4 -4 -5 -5 -5
-1 -1 -1 -1 -1 -2 -2 -2 -2 -2 -2 -2 -1 -2 -2 -3 -3 -4 -4 -4 -5 -5 -4 -4 -4 -5 -5 -5 -4 -4 -4 -4 -4 -3 -2 -2 -2 -3 -3 -4 -4 -4 -4 -4 -4 -4 -5 -5 -5
-2 -2 -2 -1 -1 -2 -2 -2 -2 -2 -2 -2 -2 -1 -2 -2 -3 -3 -3 -4 -4 -4 -3 -3 -3 -4 -4 -4 -4 -4 -4 -4 -3 -2 -2 -2 -2 -2 -2 -3 -3 -4 -4 -4 -4 -5 -5 -5 -6
-2 -2 -2 -2 -2 -2 -2 -2 -1 -2 -2 -2 -2 -1 -1 -2 -2 -3 -3 -3 -3 -3 -3 -3 -2 -3 -3 -4 -4 -4 -4 -3 -2 -2 -1 -1 -1 -1 -2 -2 -3 -4 -4 -4 -4 -4 -5 -5 -5
-2 -2 -2 -2 -2 -2 -2 -1 -1 -2 -2 -2 -1 -1 -0 -1 -2 -2 -2 -2 -1 -1 -2 -3 -2 -1 -1 -2 -3 -3 -3 -2 -1 -1 -1 -2 -2 -2 -2 -2 -3 -3 -4 -3 -3 -3 -4 -4 -4
-2 -2 -2 -2 -2 -2 -1 -1 -1 -2 -2 -2 -1 -0 -0 -0 -1 -2 -2 -1 -1 -1 -2 -3 -2 -1 -0 -1 -2 -2 -2 -1 -1 -1 -2 -2 -2 -2 -2 -2 -2 -2 -2 -2 -2 -2 -3 -3 -3
-2 -2 -2 -2 -2 -2 -2 -1 -1 -2 -2 -1 -1 -0 -0 -0 -0 -1 -1 -1 -0 -1 -2 -2 -2 -1 0 -0 -1 -1 -1 -2 -1 -1 -2 -2 -2 -2 -2 -1 -1 -0 0 0 -0 -2 -2 -3 -3
-2 -2 -2 -2 -2 -2 -2 -2 -2 -2 -2 -1 -1 -0 -0 -0 -0 -0 0 1 0 -1 -2 -2 -1 0 0 -0 -1 -1 -2 -2 -2 -2 -1 -1 -1 -1 -1 -0 -0 0 0 0 -0 -2 -3 -3 -3
-1 -1 -2 -2 -2 -2 -2 -2 -1 -1 -2 -1 -1 0 0 -0 -0 0 1 2 1 -0 -1 -1 -0 1 1 -0 -1 -1 -2 -3 -3 -2 -1 -1 -1 -1 -1 -0 -0 -0 -0 -1 -2 -2 -3 -3 -3
-1 -1 -2 -2 -2 -2 -2 -2 -2 -2 -2 -2 -1 0 0 0 -0 1 2 2 1 0 -0 -0 -0 0 -0 -1 -1 -2 -2 -3 -4 -3 -2 -2 -2 -2 -2 -1 -1 -1 -2 -2 -2 -3 -3 -3 -3
-1 -1 -2 -2 -2 -2 -2 -2 -2 -2 -2 -1 -1 0 0 0 0 1 2 2 2 1 0 -0 -0 -1 -1 -1 -1 -2 -2 -3 -3 -3 -3 -3 -3 -3 -2 -2 -2 -2 -2 -3 -3 -3 -3 -3 -3
-1 -1 -2 -2 -2 -2 -2 -2 -2 -2 -2 -1 -1 -0 0 0 0 1 1 2 2 1 0 -0 -1 -1 -1 -1 -1 -2 -2 -2 -2 -3 -3 -3 -3 -2 -2 -2 -2 -2 -3 -3 -3 -3 -3 -3 -3
-1 -2 -2 -2 -1 -1 -2 -2 -2 -2 -2 -1 -1 -0 0 0 0 0 1 1 1 1 1 0 -0 -1 -1 -1 -1 -1 -1 -1 -1 -1 -2 -3 -3 -2 -2 -2 -3 -3 -3 -3 -3 -3 -3 -3 -3
-1 -2 -2 -2 -1 -1 -2 -2 -2 -2 -2 -2 -1 -1 -0 -0 0 0 0 1 1 1 1 0 0 0 -0 -0 -0 -0 -0 -0 -1 -1 -2 -3 -3 -3 -3 -3 -3 -3 -2 -2 -3 -3 -3 -2 -2
-1 -2 -2 -2 -2 -2 -2 -2 -2 -2 -2 -2 -2 -1 -1 -1 -0 -0 0 1 1 1 1 0 0 0 0 0 0 0 0 -1 -1 -2 -2 -3 -4 -4 -4 -4 -4 -3 -3 -3 -3 -2 -2 -2 -2
-1 -2 -2 -2 -2 -2 -2 -2 -2 -2 -2 -2 -2 -2 -2 -1 -1 -1 -1 -0 0 1 1 0 -0 -0 -0 0 0 -0 -1 -1 -2 -3 -3 -3 -4 -4 -4 -4 -4 -4 -3 -3 -3 -2 -2 -1 -1
-1 -1 -2 -2 -2 -2 -2 -2 -2 -2 -1 -2 -2 -2 -2 -2 -2 -1 -1 -1 -1 -0 -0 -0 -1 -1 -1 -1 -1 -1 -2 -2 -2 -3 -3 -3 -3 -3 -3 -3 -3 -3 -3 -3 -2 -2 -1 -0 0
-1 -1 -1 -2 -2 -2 -2 -1 -1 -1 -1 -1 -1 -1 -2 -2 -3 -2 -2 -2 -2 -1 -1 -1 -1 -2 -2 -3 -3 -3 -3 -3 -3 -3 -3 -3 -3 -2 -2 -2 -2 -2 -2 -2 -2 -1 0 1 1
-2 -1 -1 -1 -2 -2 -2 -1 -1 -0 -1 -1 -1 -1 -2 -3 -3 -3 -2 -2 -2 -2 -2 -2 -2 -3 -3 -3 -3 -3 -3 -3 -3 -3 -2 -2 -2 -2 -1 -1 -1 -2 -1 -1 -0 1 2 3 3
-1 -1 -1 -1 -1 -1 -2 -1 -1 -1 -1 -1 -1 -1 -2 -2 -2 -3 -2 -2 -3 -3 -2 -2 -3 -4 -4 -4 -4 -4 -3 -3 -3 -3 -2 -2 -2 -2 -1 -1 -1 -1 -1 0 1 3 4 5 6
-1 -1 -1 -1 -1 -1 -1 -1 -2 -2 -2 -2 -1 -1 -1 -1 -1 -2 -2 -2 -2 -3 -3 -3 -3 -4 -5 -4 -4 -3 -3 -3 -3 -2 -2 -1 -2 -2 -2 -2 -2 -1 -0 1 2 3 5 6 8
-1 -1 -1 -1 -0 -1 -1 -2 -2 -2 -2 -2 -2 -3 -2 -1 -1 -2 -1 -1 -2 -3 -3 -3 -4 -4 -5 -4 -4 -3 -3 -3 -2 -1 -1 -1 -1 -2 -2 -2 -2 -1 -0 1 2 2 4 6 8
-0 -0 -0 -0 -0 -1 -1 -1 -2 -2 -2 -2 -3 -5 -5 -4 -3 -3 -2 -2 -3 -3 -3 -4 -4 -5 -5 -4 -4 -3 -3 -2 -1 -0 0 -0 -1 -1 -1 -1 -1 -1 -0 0 1 2 3 5 7
0 0 0 0 -0 -0 -1 -1 -2 -2 -2 -3 -4 -6 -6 -6 -5 -4 -4 -4 -4 -4 -4 -4 -4 -4 -4 -4 -3 -3 -2 -1 0 1 1 1 1 0 -0 -1 -1 -1 -0 0 1 2 3 5 6
1 1 1 0 -0 -0 -1 -1 -2 -2 -2 -3 -4 -6 -6 -7 -6 -5 -5 -5 -5 -4 -4 -4 -4 -4 -4 -3 -3 -2 -2 -1 1 2 2 2 1 1 -0 -1 -1 -1 -0 0 1 2 4 5 5